Regional Weather Roundup
Issued by NWS Grand Forks, ND

Home | Current Version | Previous Version | Text Only | Print | Product List | Glossary Off
Versions: 1 2 3 4 5 6 7 8 9 10 11 12 13 14 15 16 17 18 19 20 21 22 23 24 25 26 27 28 29 30 31 32 33 34 35 36 37 38 39 40 41 42 43 44 45 46 47 48 49 50

000
ASUS43 KFGF 301110
RWRFGF
PRAIRIE TO PINES  WEATHER ROUNDUP
NATIONAL WEATHER SERVICE EASTERN NORTH DAKOTA/GRAND FORKS ND
600 AM CDT SAT APR 30 2016

 **SATELLITE DATA USED TO AUGMENT SKY COVER AT AUTOMATED STATIONS**
 *****  WEATHER ACROSS EASTERN NORTH DAKOTA  *****

CITY           SKY/WX    TMP DP  RH WIND       PRES   REMARKS
GRAND FORKS    CLEAR     37  30  75 E9        30.24R
GRAND FRKS AFB CLEAR     31  28  86 N6        30.24R
DEVILS LAKE    CLEAR     37  31  78 NE8       30.23R
FARGO          CLEAR     41  30  65 E9        30.19R
WAHPETON ARPT  CLOUDY    41  32  70 E13       30.15S
$$

 ***** WEATHER ACROSS CENTRAL AND WESTERN NORTH DAKOTA  *****

CITY           SKY/WX    TMP DP  RH WIND       PRES   REMARKS
BISMARCK       CLEAR     39  32  76 NE10      30.16R
MINOT          CLEAR     39  26  59 CALM      30.24R
JAMESTOWN      CLEAR     39  32  76 E10       30.16R
MINOT AFB      CLEAR     34  26  73 E7        30.23R
GARRISON         N/A     38  30  73 NE6       30.20R
WILLISTON      CLEAR     38  29  70 VRB3      30.22R
DICKINSON      PTCLDY    34  27  75 E9        30.13R
HETTINGER      CLOUDY    40  32  73 NE10      30.11R
$$

 *****  OTHER AIRPORT OBSERVATIONS IN OUR AREA  *****

CITY           SKY/WX    TMP DP  RH WIND       PRES   REMARKS
WALHALLA       FAIR      32  30  93 NW5       30.30R
GRAFTON AIRPOR FAIR      34  30  86 N7        30.29R
VALLEY CITY AR FAIR      39  36  87 E10       30.20R
CANDO          FAIR      36  27  69 NE9       30.28R
CAVALIER APRT  FAIR      36  28  75 N5        30.29R
GWINNER        FAIR      37  34  87 NE8       30.15R
SHEYENNE NWR     N/A     39  33  79 E7        29.95
ROLLA          FAIR      32  23  69 N8        30.28R WCI  25
 ***** THE ABOVE OBSERVATIONS ARE NON NWS ARE NOT QUALITY
       CONTROLLED AND MAY MIS-REPORT RAIN FOR SNOW...
$$

  *****  WEATHER ACROSS NORTHERN MINNESOTA  *****

CITY           SKY/WX    TMP DP  RH WIND       PRES   REMARKS
FLAG ISLAND    CLEAR     39  34  81 N3        30.31R
WARROAD        CLEAR     34  30  86 NE6       30.31R
ROSEAU         CLEAR     32  28  86 CALM      30.30R
HALLOCK        CLEAR     37  30  75 E12       30.28R
THF RVR FALLS  CLEAR     37  30  75 NE7       30.26S
BAUDETTE       CLEAR     34  29  82 NE3       30.30R
WASKISH        CLEAR     34  32  93 NE6       30.27S
CROOKSTON      CLEAR     39  32  75 E8        30.25R
STEPHEN NDAWN    N/A     36  30  80 E6          N/A
GREENBUSH NDAW   N/A     34  30  86 NE5         N/A
$$
  *****  WEATHER ACROSS CENTRAL AND WEST MINNESOTA  *****

CITY           SKY/WX    TMP DP  RH WIND       PRES   REMARKS
FOSSTON        CLEAR     36  28  75 NE3       30.23S
BEMIDJI        CLEAR     34  30  86 NE7       30.23R
PARK RAPIDS    CLEAR     38  29  70 NE8       30.20R
ELBOW LAKE     FAIR      41  32  70 NE10G17   30.14S
WADENA         CLEAR     36  28  75 NE8       30.17S
DETROIT LAKES  CLEAR     39  32  75 E5        30.20R
MOORHEAD       CLEAR     39  30  70 E7        30.20R
FERGUS FALLS   CLEAR     43  30  61 E7        30.15R
MORRIS MN      CLEAR     41  32  70 E16       30.10S
STAPLES        CLEAR     36  28  75 NE6       30.17S
$$
  *****  WEATHER ELSEWHERE ACROSS MINNESOTA  *****

CITY           SKY/WX    TMP DP  RH WIND       PRES   REMARKS
DULUTH         PTCLDY    36  29  75 E14       30.22S
INTRNTL FALLS  CLEAR     28  26  92 CALM      30.30R
ELY            PTCLDY    36  32  87 CALM      30.27S
CLOQUET        CLEAR     37  28  70 NE14G21   30.20F
WHEATON        PTCLDY    41  36  81 NE9       30.15R
BRAINERD       CLEAR     37  29  72 NE12      30.18S
HIBBING        CLEAR     31  28  89 NE5       30.24R
ALEXANDRIA     CLEAR     38  30  73 NE10      30.14S
SAINT CLOUD    CLOUDY    38  29  70 NE9       30.12F
MINNEAPOLIS    CLOUDY    42  31  64 NE10      30.08F
$$

  *****  WEATHER ACROSS SOUTH DAKOTA  *****

CITY           SKY/WX    TMP DP  RH WIND       PRES   REMARKS
SIOUX FALLS    CLOUDY    44  37  76 E17G28    29.92F
BROOKINGS      CLOUDY    42  37  82 E12       29.97F
WATERTOWN      CLOUDY    39  33  79 NE15      30.02F
HURON          CLOUDY    41  38  89 NE8       30.00S
SISSETON         N/A     41  33  73 E12       30.10S
ABERDEEN       PTCLDY    42  36  79 NE12      30.08R
MITCHELL       CLOUDY    43  39  86 NE13      29.96S
PIERRE         CLOUDY    39  37  92 N12       30.00F
MOBRIDGE       CLOUDY    42  39  89 N12       30.05S
RAPID CITY     CLOUDY    39  37  92 N14       30.03R
$$

  *****  SOME WEATHER IN NEARBY STATES *****

CITY           SKY/WX    TMP DP  RH WIND       PRES   REMARKS
GLASGOW MT     CLOUDY    43  32  65 E12       30.16R
GREAT FALLS MT CLOUDY    36  34  92 W5        30.08R
CHEYENNE WY    CLOUDY    28  26  92 N12       29.87F WCI  18
SCOTTSBLUFF NE LGT SNOW  33  31  92 N7        29.92S FOG
OMAHA NE       RAIN      46  43  89 VRB6G20   29.74F FOG
DES MOINES IA  LGT RAIN  46  42  86 E15G29    29.82F FOG
DAVENPORT IA   CLOUDY    44  41  89 E16G23    29.97F FOG
CHICAGO IL     CLOUDY    45  41  86 E8        30.06R
EAU CLAIRE WI  PTCLDY    38  34  85 NE7       30.11F
LA CROSSE WI   CLOUDY    44  36  73 E6        30.08F
$$

  *****  SOME NATIONAL WEATHER *****

CITY           SKY/WX    TMP DP  RH WIND       PRES   REMARKS
LA GUARDIA NY  PTSUNNY   48  38  68 NE6       30.21R
RALEIGH NC     CLOUDY    57  57 100 E8        30.11R FOG
ATLANTA GA     MOCLDY    69  55  60 SE3       29.94S
NEW ORLEANS LA CLOUDY    76  72  87 SE7       29.79R
OKLAHOMA CITY  CLOUDY    49  48  97 NW14      29.76R
ALBUQUERQUE NM CLOUDY    43  36  76 E6        29.87S
SALT LAKE CITY MOCLDY    46  39  76 N3        29.87R
LOS ANGELES CA CLOUDY    56  50  80 SE5       29.84S
BOISE ID       CLEAR     44  36  73 NW14      29.99R
SEATTLE WA     PTCLDY    48  43  82 S5        30.31R
$$

*** WEATHER ACROSS MANITOBA...SASKATCHEWAN AND ONTARIO ***
                ***ONTARIO***

CITY           SKY/WX    TMP DP  RH WIND       PRES   REMARKS
GERALDTON      MOCLDY    30  28  93 NE3       30.32S
THUNDER BAY    MOCLDY    37  32  81 N5        30.32R
SIOUX LOOKOUT  PTCLDY    25  23  93 N2        30.34R
TORONTO        PTCLDY    37  27  65 N3        30.19S
BIG TROUT LK   CLEAR     27  25  93 NE3       30.41R
PICKLE LAKE    PTCLDY    30  25  80 N3        30.35
DRYDEN         CLEAR     32  28  86 NE5       30.33R
KENORA         NOT AVBL
$$
                *** MANITOBA***

CITY           SKY/WX    TMP DP  RH WIND       PRES   REMARKS
BRANDON        CLEAR     36  25  64 NE10      30.31R
DAUPHIN        CLEAR     27  23  86 W7        30.36R WCI  19
ISLAND LAKE    NOT AVBL
PILOT MOUND      N/A     34  25  69 NE9         N/A
THE PAS        PTCLDY    34  27  75 CALM      30.35R
THOMPSON       MOCLDY    34  25  69 CALM      30.34R
WINNIPEG       CLEAR     34  25  69 NE5       30.33R
LYNN LAKE      MOCLDY    39  27  60 S3        30.28S
CHURCHILL      MOCLDY    19  18  93 SE6       30.49R WCI  11
$$
                ***SASKATCHEWAN***

CITY           SKY/WX    TMP DP  RH WIND       PRES   REMARKS
ESTEVAN        CLEAR     28  23  80 NE7       30.26R WCI  21
KINDERSLEY     PTCLDY    37  28  70 SE7       30.19R
LLOYDMINSTER   PTCLDY    37  27  65 SE3       30.18R
PRINCE ALBERT  PTCLDY    30  28  93 E7        30.29R WCI  23
REGINA         CLEAR     37  23  56 SE12      30.28R
YORKTON        CLEAR     32  27  80 SE2       30.33R
N. BATTLEFORD  CLEAR     36  23  60 E9        30.23R
LA RONGE       PTCLDY    34  25  69 E2        30.28R
SASKATOON      CLEAR     39  27  60 SE12      30.27R
SWIFT CURRENT  MOCLDY    36  30  80 SE8       30.20R
$$
NOTE: THESE ARE AUTOMATED STATIONS WITH LIMITED QUALITY CONTROL
      "FAIR" INDICATES FEW OR NO CLOUDS BELOW 12,000 FEET WITH NO
      SIGNIFICANT WEATHER AND/OR OBSTRUCTIONS TO VISIBILITY.
      SKY/WX - SKY CONDITION AND SIGNIFICANT WEATHER.
      TMP - AIR TEMPERATURE.    DP   - DEWPOINT TEMPERATURE.
      RH  - RELATIVE HUMIDITY.  PRES - PRESSURE.
      HX  - HEAT INDEX.         WCI  - WIND CHILL INDEX.
$



USA.gov is the U.S. government's official web portal to all federal, state and local government web resources and services.